Time,TemperatureF,DewpointF,PressureIn,WindDirection,WindDirectionDegrees,WindSpeedMPH,WindSpeedGustMPH,Humidity,HourlyPrecipIn,Conditions,Clouds,dailyrainin,SolarRadiationWatts/m^2,SoftwareType,DateUTC
2013-02-03 00:04:00,1.9,-1.6,30.11,NNW,342,0.0,0.0,85,0.00,CLR,,0.00,0.0,WeatherDisplay:10.37,2013-02-03 06:04:00,
2013-02-03 00:09:00,1.9,-1.6,30.11,NNW,342,0.0,0.0,85,0.00,CLR,,0.00,0.0,WeatherDisplay:10.37,2013-02-03 06:09:00,
2013-02-03 00:14:00,1.8,-1.7,30.11,NNW,342,0.0,0.0,85,0.00,CLR,,0.00,0.0,WeatherDisplay:10.37,2013-02-03 06:14:00,
2013-02-03 00:19:00,1.6,-1.9,30.10,NNW,342,0.0,0.0,85,0.00,CLR,,0.00,0.0,WeatherDisplay:10.37,2013-02-03 06:19:00,
2013-02-03 00:24:00,1.4,-2.1,30.10,NNW,342,0.0,0.0,85,0.00,CLR,,0.00,0.0,WeatherDisplay:10.37,2013-02-03 06:24:00,
2013-02-03 00:29:00,1.2,-2.3,30.10,NNW,342,0.0,0.0,85,0.00,CLR,,0.00,0.0,WeatherDisplay:10.37,2013-02-03 06:29:00,
2013-02-03 00:34:00,1.1,-2.4,30.10,NNW,342,0.0,0.0,85,0.00,CLR,,0.00,0.0,WeatherDisplay:10.37,2013-02-03 06:34:00,
2013-02-03 00:39:00,0.9,-2.6,30.10,NNW,342,0.0,0.0,85,0.00,CLR,,0.00,0.0,WeatherDisplay:10.37,2013-02-03 06:39:00,
2013-02-03 00:44:00,0.8,-2.7,30.10,NNW,342,0.0,0.0,85,0.00,CLR,,0.00,0.0,WeatherDisplay:10.37,2013-02-03 06:44:00,
2013-02-03 00:49:00,0.8,-2.7,30.09,NNW,342,0.0,0.0,85,0.00,CLR,,0.00,0.0,WeatherDisplay:10.37,2013-02-03 06:49:00,
2013-02-03 00:54:00,0.8,-2.7,30.09,NNW,342,0.0,0.0,85,0.00,CLR,,0.00,0.0,WeatherDisplay:10.37,2013-02-03 06:54:00,
2013-02-03 00:59:00,0.8,-2.7,30.09,NNW,342,0.0,0.0,85,0.00,CLR,,0.00,0.0,WeatherDisplay:10.37,2013-02-03 06:59:00,
2013-02-03 01:04:00,0.7,-2.7,30.09,NNW,342,0.0,0.0,85,0.00,CLR,,0.00,0.0,WeatherDisplay:10.37,2013-02-03 07:04:00,
2013-02-03 01:09:00,0.7,-2.7,30.08,NNW,342,0.0,0.0,85,0.00,CLR,,0.00,0.0,WeatherDisplay:10.37,2013-02-03 07:09:00,
2013-02-03 01:14:00,0.6,-2.8,30.08,NNW,342,0.0,0.0,85,0.00,CLR,,0.00,0.0,WeatherDisplay:10.37,2013-02-03 07:14:00,
2013-02-03 01:19:00,0.6,-2.8,30.08,NNW,342,0.0,0.0,85,0.00,CLR,,0.00,0.0,WeatherDisplay:10.37,2013-02-03 07:19:00,
2013-02-03 01:24:00,0.7,-2.7,30.08,NNW,342,0.0,0.0,85,0.00,CLR,,0.00,0.0,WeatherDisplay:10.37,2013-02-03 07:24:00,
2013-02-03 01:29:00,0.9,-2.6,30.08,NNW,342,0.0,0.0,85,0.00,CLR,,0.00,0.0,WeatherDisplay:10.37,2013-02-03 07:29:00,
2013-02-03 01:34:00,1.1,-2.4,30.08,NNW,342,0.0,0.0,85,0.00,CLR,,0.00,0.0,WeatherDisplay:10.37,2013-02-03 07:34:00,
2013-02-03 01:39:00,1.2,-2.3,30.08,NNW,342,0.0,0.0,85,0.00,CLR,,0.00,0.0,WeatherDisplay:10.37,2013-02-03 07:39:00,
2013-02-03 01:44:00,1.3,-2.2,30.08,NNW,342,0.0,0.0,85,0.00,CLR,,0.00,0.0,WeatherDisplay:10.37,2013-02-03 07:44:00,
2013-02-03 01:49:00,1.8,-1.4,30.08,NNW,342,0.0,0.0,86,0.00,CLR,,0.00,0.0,WeatherDisplay:10.37,2013-02-03 07:49:00,
2013-02-03 01:54:00,2.1,-1.1,30.08,NNW,342,0.0,0.0,86,0.00,CLR,,0.00,0.0,WeatherDisplay:10.37,2013-02-03 07:54:00,
2013-02-03 01:59:00,2.4,-0.8,30.08,NNW,342,0.0,0.0,86,0.00,CLR,,0.00,0.0,WeatherDisplay:10.37,2013-02-03 07:59:00,
2013-02-03 02:04:00,2.5,-0.7,30.08,NNW,342,0.0,0.0,86,0.00,CLR,,0.00,0.0,WeatherDisplay:10.37,2013-02-03 08:04:00,
2013-02-03 02:09:00,2.7,-0.5,30.08,NNW,342,0.0,0.0,86,0.00,CLR,,0.00,0.0,WeatherDisplay:10.37,2013-02-03 08:09:00,
2013-02-03 02:14:00,2.8,-0.4,30.08,NNW,342,0.0,0.0,86,0.00,CLR,,0.00,0.0,WeatherDisplay:10.37,2013-02-03 08:14:00,
2013-02-03 02:19:00,2.9,-0.3,30.07,NNW,342,0.0,0.0,86,0.00,CLR,,0.00,0.0,WeatherDisplay:10.37,2013-02-03 08:19:00,
2013-02-03 02:24:00,3.0,-0.2,30.07,NNW,342,0.0,0.0,86,0.00,CLR,,0.00,0.0,WeatherDisplay:10.37,2013-02-03 08:24:00,
2013-02-03 02:29:00,3.0,-0.2,30.07,NNW,342,0.0,0.0,86,0.00,CLR,,0.00,0.0,WeatherDisplay:10.37,2013-02-03 08:29:00,
2013-02-03 02:34:00,3.0,-0.2,30.07,NNW,342,0.0,0.0,86,0.00,CLR,,0.00,0.0,WeatherDisplay:10.37,2013-02-03 08:34:00,
2013-02-03 02:39:00,2.9,-0.3,30.07,NNW,342,0.0,0.0,86,0.00,CLR,,0.00,0.0,WeatherDisplay:10.37,2013-02-03 08:39:00,
2013-02-03 02:44:00,2.9,-0.3,30.07,NNW,342,0.0,0.0,86,0.00,CLR,,0.00,0.0,WeatherDisplay:10.37,2013-02-03 08:44:00,
2013-02-03 02:49:00,2.9,-0.3,30.06,NNW,342,0.0,0.0,86,0.00,CLR,,0.00,0.0,WeatherDisplay:10.37,2013-02-03 08:49:00,
2013-02-03 02:54:00,2.9,-0.3,30.06,NNW,342,0.0,0.0,86,0.00,CLR,,0.00,0.0,WeatherDisplay:10.37,2013-02-03 08:54:00,
2013-02-03 02:59:00,2.9,-0.3,30.06,NNW,342,0.0,0.0,86,0.00,CLR,,0.00,0.0,WeatherDisplay:10.37,2013-02-03 08:59:00,
2013-02-03 03:04:00,3.2,0.0,30.06,NNW,342,0.0,0.0,86,0.00,CLR,,0.00,0.0,WeatherDisplay:10.37,2013-02-03 09:04:00,
2013-02-03 03:09:00,3.4,0.2,30.06,NNW,342,0.0,0.0,86,0.00,CLR,,0.00,0.0,WeatherDisplay:10.37,2013-02-03 09:09:00,
2013-02-03 03:14:00,3.7,0.4,30.05,NNW,342,0.0,0.0,86,0.00,CLR,,0.00,0.0,WeatherDisplay:10.37,2013-02-03 09:14:00,
2013-02-03 03:19:00,3.8,0.5,30.05,NNW,342,0.0,0.0,86,0.00,CLR,,0.00,0.0,WeatherDisplay:10.37,2013-02-03 09:19:00,
2013-02-03 03:24:00,4.1,0.8,30.06,NNW,342,0.0,0.0,86,0.00,CLR,,0.00,0.0,WeatherDisplay:10.37,2013-02-03 09:24:00,
2013-02-03 03:29:00,4.3,1.0,30.06,NNW,342,0.0,0.0,86,0.00,CLR,,0.00,0.0,WeatherDisplay:10.37,2013-02-03 09:29:00,
2013-02-03 03:34:00,4.4,1.1,30.05,NNW,342,0.0,0.0,86,0.00,CLR,,0.00,0.0,WeatherDisplay:10.37,2013-02-03 09:34:00,
2013-02-03 03:39:00,4.5,1.2,30.05,NNW,342,0.0,0.0,86,0.00,CLR,,0.00,0.0,WeatherDisplay:10.37,2013-02-03 09:39:00,
2013-02-03 03:44:00,4.6,1.3,30.05,NNW,342,0.0,0.0,86,0.00,CLR,,0.00,0.0,WeatherDisplay:10.37,2013-02-03 09:44:00,
2013-02-03 03:49:00,4.8,1.5,30.05,NNW,342,0.0,0.0,86,0.00,CLR,,0.00,0.0,WeatherDisplay:10.37,2013-02-03 09:49:00,
2013-02-03 03:54:00,5.0,1.7,30.05,NNW,342,0.0,0.0,86,0.00,CLR,,0.00,0.0,WeatherDisplay:10.37,2013-02-03 09:54:00,
2013-02-03 03:59:00,5.2,4.5,30.04,NNW,342,0.0,0.0,97,0.00,CLR,,0.00,0.0,WeatherDisplay:10.37,2013-02-03 09:59:00,
2013-02-03 04:04:00,5.3,2.3,30.05,NNW,342,0.0,0.0,87,0.00,CLR,,0.00,0.0,WeatherDisplay:10.37,2013-02-03 10:04:00,
2013-02-03 04:09:00,5.5,2.5,30.04,NNW,342,0.0,0.0,87,0.00,CLR,,0.00,0.0,WeatherDisplay:10.37,2013-02-03 10:09:00,
2013-02-03 04:14:00,5.5,2.5,30.04,NNW,342,0.0,0.0,87,0.00,CLR,,0.00,0.0,WeatherDisplay:10.37,2013-02-03 10:14:00,
2013-02-03 04:19:00,5.6,2.6,30.04,NNW,342,0.0,0.0,87,0.00,CLR,,0.00,0.0,WeatherDisplay:10.37,2013-02-03 10:19:00,
2013-02-03 04:24:00,5.7,2.7,30.03,NNW,342,0.0,0.0,87,0.00,CLR,,0.00,0.0,WeatherDisplay:10.37,2013-02-03 10:24:00,
2013-02-03 04:29:00,5.7,2.7,30.03,NNW,342,0.0,0.0,87,0.00,CLR,,0.00,0.0,WeatherDisplay:10.37,2013-02-03 10:29:00,
2013-02-03 04:34:00,5.7,2.7,30.04,NNW,342,0.0,0.0,87,0.00,CLR,,0.00,0.0,WeatherDisplay:10.37,2013-02-03 10:34:00,
2013-02-03 04:39:00,5.6,2.3,30.04,NNW,342,0.0,0.0,86,0.00,CLR,,0.00,0.0,WeatherDisplay:10.37,2013-02-03 10:39:00,
2013-02-03 04:44:00,5.5,2.2,30.04,NNW,342,0.0,0.0,86,0.00,CLR,,0.00,0.0,WeatherDisplay:10.37,2013-02-03 10:44:00,
2013-02-03 04:49:00,5.4,2.4,30.05,NNW,342,0.0,0.0,87,0.00,CLR,,0.00,0.0,WeatherDisplay:10.37,2013-02-03 10:49:00,
2013-02-03 04:54:00,5.4,2.4,30.05,NNW,342,0.0,0.0,87,0.00,CLR,,0.00,0.0,WeatherDisplay:10.37,2013-02-03 10:54:00,
2013-02-03 04:59:00,5.5,2.5,30.05,NNW,342,0.0,0.0,87,0.00,CLR,,0.00,0.0,WeatherDisplay:10.37,2013-02-03 10:59:00,
2013-02-03 05:04:00,5.6,2.6,30.05,NNW,342,0.0,0.0,87,0.00,CLR,,0.00,0.0,WeatherDisplay:10.37,2013-02-03 11:04:00,
2013-02-03 05:09:00,5.6,2.6,30.05,NNW,342,0.0,0.0,87,0.00,CLR,,0.00,0.0,WeatherDisplay:10.37,2013-02-03 11:09:00,
2013-02-03 05:14:00,5.6,2.6,30.05,NNW,342,0.0,0.0,87,0.00,CLR,,0.00,0.0,WeatherDisplay:10.37,2013-02-03 11:14:00,
2013-02-03 05:19:00,5.6,2.6,30.05,NNW,342,0.0,0.0,87,0.00,CLR,,0.00,0.0,WeatherDisplay:10.37,2013-02-03 11:19:00,
2013-02-03 05:24:00,5.7,2.7,30.05,NNW,342,0.0,0.0,87,0.00,CLR,,0.00,0.0,WeatherDisplay:10.37,2013-02-03 11:24:00,
2013-02-03 05:29:00,5.8,2.8,30.04,NNW,342,0.0,0.0,87,0.00,CLR,,0.00,0.0,WeatherDisplay:10.37,2013-02-03 11:29:00,
2013-02-03 05:34:00,6.1,3.1,30.04,NNW,342,2.3,0.0,87,0.00,CLR,,0.00,0.0,WeatherDisplay:10.37,2013-02-03 11:34:00,
2013-02-03 05:39:00,6.4,3.4,30.04,NNW,342,0.0,0.0,87,0.00,CLR,,0.00,0.0,WeatherDisplay:10.37,2013-02-03 11:39:00,
2013-02-03 05:44:00,6.7,3.7,30.05,NNW,342,0.0,0.0,87,0.00,CLR,,0.00,0.0,WeatherDisplay:10.37,2013-02-03 11:44:00,
2013-02-03 05:49:00,7.0,3.9,30.05,NNW,342,0.0,0.0,87,0.00,CLR,,0.00,0.0,WeatherDisplay:10.37,2013-02-03 11:49:00,
2013-02-03 05:54:00,7.3,4.5,30.04,NNW,342,0.0,0.0,88,0.00,CLR,,0.00,0.0,WeatherDisplay:10.37,2013-02-03 11:54:00,
2013-02-03 05:59:00,7.5,4.7,30.05,NNW,342,0.0,0.0,88,0.00,CLR,,0.00,0.0,WeatherDisplay:10.37,2013-02-03 11:59:00,
2013-02-03 06:04:00,7.7,4.9,30.05,NNW,342,0.0,0.0,88,0.00,CLR,,0.00,0.0,WeatherDisplay:10.37,2013-02-03 12:04:00,
2013-02-03 06:09:00,7.9,5.1,30.05,NNW,342,0.0,0.0,88,0.00,CLR,,0.00,0.0,WeatherDisplay:10.37,2013-02-03 12:09:00,
2013-02-03 06:14:00,8.0,5.2,30.05,NNW,342,0.0,0.0,88,0.00,CLR,,0.00,0.0,WeatherDisplay:10.37,2013-02-03 12:14:00,
2013-02-03 06:19:00,8.1,5.3,30.04,NNW,342,0.0,0.0,88,0.00,CLR,,0.00,0.0,WeatherDisplay:10.37,2013-02-03 12:19:00,
2013-02-03 06:24:00,8.3,5.5,30.05,NNW,342,0.0,0.2,88,0.00,CLR,,0.00,0.0,WeatherDisplay:10.37,2013-02-03 12:24:00,
2013-02-03 06:29:00,8.4,5.6,30.04,NNW,342,1.1,0.0,88,0.00,CLR,,0.00,0.0,WeatherDisplay:10.37,2013-02-03 12:29:00,
2013-02-03 06:34:00,8.5,5.7,30.05,NNW,342,0.0,0.0,88,0.00,CLR,,0.00,0.0,WeatherDisplay:10.37,2013-02-03 12:34:00,
2013-02-03 06:39:00,8.6,5.8,30.05,NNW,342,0.0,0.0,88,0.00,CLR,,0.00,0.0,WeatherDisplay:10.37,2013-02-03 12:39:00,
2013-02-03 06:44:00,8.7,5.9,30.05,NNW,342,3.5,3.5,88,0.00,CLR,,0.00,0.0,WeatherDisplay:10.37,2013-02-03 12:44:00,
2013-02-03 06:49:00,8.8,6.0,30.05,NNW,342,4.6,4.6,88,0.00,CLR,,0.00,0.0,WeatherDisplay:10.37,2013-02-03 12:49:00,
2013-02-03 06:54:00,8.8,6.0,30.05,NNW,342,2.3,2.3,88,0.00,CLR,,0.00,0.0,WeatherDisplay:10.37,2013-02-03 12:54:00,
2013-02-03 06:59:00,8.9,6.1,30.05,NNW,342,0.0,0.0,88,0.00,CLR,,0.00,0.0,WeatherDisplay:10.37,2013-02-03 12:59:00,
2013-02-03 07:04:00,9.0,6.2,30.05,NNW,342,0.0,0.0,88,0.00,OVC,,0.00,0.0,WeatherDisplay:10.37,2013-02-03 13:04:00,
2013-02-03 07:09:00,9.0,6.2,30.05,NNW,342,3.5,3.5,88,0.00,OVC,,0.00,0.0,WeatherDisplay:10.37,2013-02-03 13:09:00,
2013-02-03 07:14:00,9.1,6.3,30.05,NNW,342,1.1,0.0,88,0.00,OVC,,0.00,0.0,WeatherDisplay:10.37,2013-02-03 13:14:00,
2013-02-03 07:19:00,9.2,6.4,30.05,NNW,342,3.5,3.5,88,0.00,OVC,,0.00,0.0,WeatherDisplay:10.37,2013-02-03 13:19:00,
2013-02-03 07:24:00,9.3,6.5,30.05,NNW,342,0.0,0.0,88,0.00,OVC,,0.00,0.0,WeatherDisplay:10.37,2013-02-03 13:24:00,
2013-02-03 07:29:00,9.5,6.7,30.06,NNW,342,2.3,2.3,88,0.00,OVC,,0.00,0.0,WeatherDisplay:10.37,2013-02-03 13:29:00,
2013-02-03 07:34:00,9.6,6.8,30.06,NNW,342,2.3,2.3,88,0.00,BKN,,0.00,5.0,WeatherDisplay:10.37,2013-02-03 13:34:00,
2013-02-03 07:39:00,9.6,6.8,30.06,NNW,342,0.0,0.0,88,0.00,BKN,,0.00,5.0,WeatherDisplay:10.37,2013-02-03 13:39:00,
2013-02-03 07:45:00,9.7,6.9,30.06,NNW,342,1.0,3.0,88,0.00,BKN,,0.00,7.0,WeatherDisplay:10.37,2013-02-03 13:45:00,
2013-02-03 07:50:00,9.9,7.1,30.06,NNW,342,3.5,3.5,88,0.00,BKN,,0.00,7.0,WeatherDisplay:10.37,2013-02-03 13:50:00,
2013-02-03 07:55:00,10.0,7.2,30.06,NNW,342,0.0,0.0,88,0.00,BKN,,0.00,9.0,WeatherDisplay:10.37,2013-02-03 13:55:00,
2013-02-03 08:00:00,10.1,7.3,30.06,NNW,342,1.1,1.1,88,0.00,BKN,,0.00,11.0,WeatherDisplay:10.37,2013-02-03 14:00:00,
2013-02-03 08:05:00,10.4,7.6,30.06,NNW,342,4.6,4.6,88,0.00,BKN,,0.00,11.0,WeatherDisplay:10.37,2013-02-03 14:05:00,
2013-02-03 08:10:00,10.6,7.7,30.06,NNW,342,3.5,3.5,88,0.00,BKN,,0.00,12.0,WeatherDisplay:10.37,2013-02-03 14:10:00,
2013-02-03 08:15:00,10.8,7.9,30.06,NNW,342,1.1,0.0,88,0.00,BKN,,0.00,12.0,WeatherDisplay:10.37,2013-02-03 14:15:00,
2013-02-03 08:20:00,11.0,8.1,30.06,NNW,342,3.5,3.5,88,0.00,BKN,,0.00,12.0,WeatherDisplay:10.37,2013-02-03 14:20:00,
2013-02-03 08:25:00,11.1,8.2,30.06,NNW,342,3.5,3.5,88,0.00,BKN,,0.00,16.0,WeatherDisplay:10.37,2013-02-03 14:25:00,
2013-02-03 08:30:00,11.2,8.3,30.06,NNW,342,3.5,3.5,88,0.00,BKN,,0.00,16.0,WeatherDisplay:10.37,2013-02-03 14:30:00,
2013-02-03 08:35:00,11.4,8.5,30.06,NNW,342,4.6,4.6,88,0.00,BKN,,0.00,16.0,WeatherDisplay:10.37,2013-02-03 14:35:00,
2013-02-03 08:40:00,11.6,8.7,30.06,NNW,342,0.0,0.0,88,0.00,BKN,,0.00,18.0,WeatherDisplay:10.37,2013-02-03 14:40:00,
2013-02-03 08:45:00,11.6,8.7,30.06,NNW,342,2.3,2.3,88,0.00,BKN,,0.00,21.0,WeatherDisplay:10.37,2013-02-03 14:45:00,
2013-02-03 08:50:00,11.7,8.8,30.05,NNW,342,2.3,2.3,88,0.00,BKN,,0.00,25.0,WeatherDisplay:10.37,2013-02-03 14:50:00,
2013-02-03 08:55:00,11.9,9.0,30.06,NNW,342,2.3,2.3,88,0.00,BKN,,0.00,26.0,WeatherDisplay:10.37,2013-02-03 14:55:00,
2013-02-03 09:00:00,12.0,9.1,30.05,NNW,342,3.5,3.5,88,0.00,BKN,,0.00,28.0,WeatherDisplay:10.37,2013-02-03 15:00:00,
2013-02-03 09:05:00,12.1,9.2,30.05,NNW,342,0.0,0.0,88,0.00,BKN,,0.00,33.0,WeatherDisplay:10.37,2013-02-03 15:05:00,
2013-02-03 09:10:00,12.4,9.5,30.05,NNW,342,2.3,2.3,88,0.00,BKN,,0.00,40.0,WeatherDisplay:10.37,2013-02-03 15:10:00,
2013-02-03 09:15:00,12.6,9.7,30.05,NNW,342,2.3,2.3,88,0.00,BKN,,0.00,51.0,WeatherDisplay:10.37,2013-02-03 15:15:00,
2013-02-03 09:20:00,12.9,10.0,30.05,NNW,342,2.3,2.3,88,0.00,BKN,,0.00,46.0,WeatherDisplay:10.37,2013-02-03 15:20:00,
2013-02-03 09:25:00,13.1,10.2,30.05,NNW,342,0.0,0.0,88,0.00,BKN,,0.00,47.0,WeatherDisplay:10.37,2013-02-03 15:25:00,
2013-02-03 09:30:00,13.2,10.1,30.05,NNW,342,3.5,3.5,87,0.00,BKN,,0.00,51.0,WeatherDisplay:10.37,2013-02-03 15:30:00,
2013-02-03 09:35:00,13.4,10.3,30.05,NNW,342,2.3,2.3,87,0.00,BKN,,0.00,53.0,WeatherDisplay:10.37,2013-02-03 15:35:00,
2013-02-03 09:40:00,13.6,10.5,30.05,NNW,342,6.9,6.9,87,0.00,BKN,,0.00,60.0,WeatherDisplay:10.37,2013-02-03 15:40:00,
2013-02-03 09:45:00,13.7,10.5,30.05,NNW,342,5.8,5.8,87,0.00,BKN,,0.00,58.0,WeatherDisplay:10.37,2013-02-03 15:45:00,
2013-02-03 09:50:00,13.8,10.4,30.05,NNW,342,4.6,4.6,86,0.00,BKN,,0.00,60.0,WeatherDisplay:10.37,2013-02-03 15:50:00,
2013-02-03 09:55:00,14.0,10.6,30.06,NNW,342,3.5,3.5,86,0.00,BKN,,0.00,60.0,WeatherDisplay:10.37,2013-02-03 15:55:00,
2013-02-03 10:00:00,14.1,10.4,30.06,NNW,342,3.5,3.5,85,0.00,BKN,,0.00,54.0,WeatherDisplay:10.37,2013-02-03 16:00:00,
2013-02-03 10:05:00,14.1,10.4,30.07,NNW,342,0.0,0.0,85,0.00,BKN,,0.00,53.0,WeatherDisplay:10.37,2013-02-03 16:05:00,
2013-02-03 10:10:00,14.2,10.3,30.07,NNW,342,3.5,3.5,84,0.00,BKN,,0.00,65.0,WeatherDisplay:10.37,2013-02-03 16:10:00,
2013-02-03 10:15:00,14.3,10.4,30.06,NNW,342,10.4,10.4,84,0.00,BKN,,0.00,51.0,WeatherDisplay:10.37,2013-02-03 16:15:00,
2013-02-03 10:20:00,14.4,10.2,30.06,NNW,342,3.5,3.5,83,0.00,BKN,,0.00,60.0,WeatherDisplay:10.37,2013-02-03 16:20:00,
2013-02-03 10:25:00,14.6,10.1,30.07,NNW,342,0.0,0.0,82,0.00,BKN,,0.00,56.0,WeatherDisplay:10.37,2013-02-03 16:25:00,
2013-02-03 10:30:00,14.9,10.1,30.07,NNW,342,10.4,10.4,81,0.00,BKN,,0.00,33.0,WeatherDisplay:10.37,2013-02-03 16:30:00,
2013-02-03 10:35:00,14.8,9.7,30.06,NNW,342,1.1,1.1,80,0.00,BKN,,0.00,104.0,WeatherDisplay:10.37,2013-02-03 16:35:00,
2013-02-03 10:40:00,14.9,9.6,30.07,NNW,342,3.5,3.5,79,0.00,BKN,,0.00,58.0,WeatherDisplay:10.37,2013-02-03 16:40:00,
2013-02-03 10:45:00,14.9,9.3,30.07,NNW,342,3.5,3.5,78,0.00,BKN,,0.00,72.0,WeatherDisplay:10.37,2013-02-03 16:45:00,
2013-02-03 10:50:00,15.1,9.5,30.07,NNW,342,5.8,5.8,78,0.00,BKN,,0.00,90.0,WeatherDisplay:10.37,2013-02-03 16:50:00,
2013-02-03 10:55:00,15.6,10.0,30.08,NNW,342,1.1,1.1,78,0.00,BKN,,0.00,156.0,WeatherDisplay:10.37,2013-02-03 16:55:00,
2013-02-03 11:00:00,15.7,9.8,30.08,NNW,337,4.6,4.6,77,0.00,BKN,,0.00,91.0,WeatherDisplay:10.37,2013-02-03 17:00:00,
2013-02-03 11:05:00,15.6,9.4,30.08,NNW,337,2.3,2.3,76,0.00,BKN,,0.00,62.0,WeatherDisplay:10.37,2013-02-03 17:05:00,
2013-02-03 11:10:00,15.3,9.1,30.08,NNW,337,4.6,4.6,76,0.00,BKN,,0.00,91.0,WeatherDisplay:10.37,2013-02-03 17:10:00,
2013-02-03 11:15:00,15.5,9.6,30.08,NNW,337,1.1,1.1,77,0.00,BKN,,0.00,84.0,WeatherDisplay:10.37,2013-02-03 17:15:00,
2013-02-03 11:20:00,15.7,9.8,30.09,NNW,337,6.9,6.9,77,0.00,BKN,,0.00,153.0,WeatherDisplay:10.37,2013-02-03 17:20:00,
2013-02-03 11:25:00,15.6,9.7,30.08,NNW,337,3.5,3.5,77,0.00,BKN,,0.00,160.0,WeatherDisplay:10.37,2013-02-03 17:25:00,
2013-02-03 11:30:00,16.3,10.4,30.09,WSW,251,3.5,3.5,77,0.00,BKN,,0.00,155.0,WeatherDisplay:10.37,2013-02-03 17:30:00,
2013-02-03 11:35:00,16.4,10.2,30.08,SSW,199,4.6,4.6,76,0.00,BKN,,0.00,74.0,WeatherDisplay:10.37,2013-02-03 17:35:00,
2013-02-03 11:40:00,16.3,9.8,30.08,WNW,302,3.5,3.5,75,0.00,BKN,,0.00,163.0,WeatherDisplay:10.37,2013-02-03 17:40:00,
2013-02-03 11:45:00,16.7,10.1,30.08,NW,318,3.5,3.5,75,0.00,BKN,,0.00,77.0,WeatherDisplay:10.37,2013-02-03 17:45:00,
2013-02-03 11:50:00,16.5,9.7,30.08,NW,318,5.8,5.8,74,0.00,BKN,,0.00,95.0,WeatherDisplay:10.37,2013-02-03 17:50:00,
2013-02-03 11:55:00,16.7,9.8,30.08,WNW,287,1.1,0.0,74,0.00,BKN,,0.00,107.0,WeatherDisplay:10.37,2013-02-03 17:55:00,
2013-02-03 12:00:00,16.9,9.7,30.08,South,185,4.6,4.6,73,0.00,BKN,,0.00,90.0,WeatherDisplay:10.37,2013-02-03 18:00:00,
2013-02-03 12:05:00,17.2,10.0,30.08,SW,220,1.1,1.1,73,0.00,BKN,,0.00,98.0,WeatherDisplay:10.37,2013-02-03 18:05:00,
2013-02-03 12:10:00,16.8,9.6,30.08,NW,316,2.3,2.3,73,0.00,BKN,,0.00,139.0,WeatherDisplay:10.37,2013-02-03 18:10:00,
2013-02-03 12:15:00,16.1,9.0,30.08,SSW,208,6.9,6.9,73,0.00,BKN,,0.00,153.0,WeatherDisplay:10.37,2013-02-03 18:15:00,
2013-02-03 12:20:00,16.3,9.8,30.08,SW,235,3.5,3.5,75,0.00,BKN,,0.00,162.0,WeatherDisplay:10.37,2013-02-03 18:20:00,
2013-02-03 12:25:00,16.4,9.3,30.07,SW,216,5.8,5.8,73,0.00,BKN,,0.00,162.0,WeatherDisplay:10.37,2013-02-03 18:25:00,
2013-02-03 12:30:00,16.5,9.7,30.07,SSW,194,3.5,3.5,74,0.00,BKN,,0.00,165.0,WeatherDisplay:10.37,2013-02-03 18:30:00,
2013-02-03 12:35:00,17.0,10.1,30.07,SSE,163,0.0,0.0,74,0.00,BKN,,0.00,163.0,WeatherDisplay:10.37,2013-02-03 18:35:00,
2013-02-03 12:40:00,17.6,10.1,30.07,SSW,198,2.3,2.3,72,0.00,BKN,,0.00,162.0,WeatherDisplay:10.37,2013-02-03 18:40:00,
2013-02-03 12:45:00,17.3,9.5,30.07,SW,215,3.5,3.5,71,0.00,BKN,,0.00,163.0,WeatherDisplay:10.37,2013-02-03 18:45:00,
2013-02-03 12:50:00,17.0,9.5,30.08,SW,218,5.8,5.8,72,0.00,BKN,,0.00,165.0,WeatherDisplay:10.37,2013-02-03 18:50:00,
2013-02-03 12:55:00,17.3,10.1,30.07,SW,221,5.8,5.8,73,0.00,BKN,,0.00,158.0,WeatherDisplay:10.37,2013-02-03 18:55:00,
2013-02-03 13:00:00,17.7,10.2,30.08,West,268,3.5,3.5,72,0.00,BKN,,0.00,167.0,WeatherDisplay:10.37,2013-02-03 19:00:00,
2013-02-03 13:05:00,17.8,10.0,30.08,SSW,206,6.9,6.9,71,0.00,BKN,,0.00,167.0,WeatherDisplay:10.37,2013-02-03 19:05:00,
2013-02-03 13:10:00,17.5,9.4,30.07,South,183,10.4,10.4,70,0.00,BKN,,0.00,171.0,WeatherDisplay:10.37,2013-02-03 19:10:00,
2013-02-03 13:15:00,17.8,10.3,30.07,SSW,204,3.5,3.5,72,0.00,BKN,,0.00,181.0,WeatherDisplay:10.37,2013-02-03 19:15:00,
2013-02-03 13:20:00,18.2,10.7,30.07,SSW,208,0.0,0.0,72,0.00,BKN,,0.00,158.0,WeatherDisplay:10.37,2013-02-03 19:20:00,
2013-02-03 13:25:00,18.1,10.3,30.07,South,178,11.5,11.5,71,0.00,BKN,,0.00,200.0,WeatherDisplay:10.37,2013-02-03 19:25:00,
2013-02-03 13:30:00,18.1,10.6,30.07,SW,227,3.5,3.5,72,0.00,BKN,,0.00,232.0,WeatherDisplay:10.37,2013-02-03 19:30:00,
2013-02-03 13:35:00,18.1,10.0,30.07,SSW,196,10.4,10.4,70,0.00,SCT,,0.00,276.0,WeatherDisplay:10.37,2013-02-03 19:35:00,
2013-02-03 13:40:00,18.1,10.3,30.07,SSW,212,3.5,3.5,71,0.00,SCT,,0.00,302.0,WeatherDisplay:10.37,2013-02-03 19:40:00,
2013-02-03 13:45:00,18.3,10.5,30.06,SW,226,3.5,3.5,71,0.00,SCT,,0.00,346.0,WeatherDisplay:10.37,2013-02-03 19:45:00,
2013-02-03 13:50:00,18.7,10.9,30.07,SW,225,1.1,1.1,71,0.00,CLR,,0.00,376.0,WeatherDisplay:10.37,2013-02-03 19:50:00,
2013-02-03 13:55:00,18.9,10.4,30.07,SSW,213,1.1,1.1,69,0.00,CLR,,0.00,401.0,WeatherDisplay:10.37,2013-02-03 19:55:00,
2013-02-03 14:00:00,18.6,9.5,30.07,SW,225,4.6,4.6,67,0.00,CLR,,0.00,424.0,WeatherDisplay:10.37,2013-02-03 20:00:00,
2013-02-03 14:05:00,18.2,9.7,30.07,SW,231,3.5,3.5,69,0.00,CLR,,0.00,499.0,WeatherDisplay:10.37,2013-02-03 20:05:00,
2013-02-03 14:10:00,19.0,10.5,30.08,WNW,282,1.1,1.1,69,0.00,CLR,,0.00,478.0,WeatherDisplay:10.37,2013-02-03 20:10:00,
2013-02-03 14:15:00,19.2,10.7,30.08,SW,224,3.5,3.5,69,0.00,CLR,,0.00,480.0,WeatherDisplay:10.37,2013-02-03 20:15:00,
2013-02-03 14:20:00,19.1,10.6,30.08,SW,227,5.8,5.8,69,0.00,CLR,,0.00,480.0,WeatherDisplay:10.37,2013-02-03 20:20:00,
2013-02-03 14:25:00,18.8,10.3,30.08,SSW,210,6.9,6.9,69,0.00,CLR,,0.00,466.0,WeatherDisplay:10.37,2013-02-03 20:25:00,
2013-02-03 14:30:00,18.5,10.0,30.08,SW,231,4.6,4.6,69,0.00,CLR,,0.00,394.0,WeatherDisplay:10.37,2013-02-03 20:30:00,
2013-02-03 14:35:00,18.1,9.6,30.08,WSW,248,3.5,3.5,69,0.00,CLR,,0.00,429.0,WeatherDisplay:10.37,2013-02-03 20:35:00,
2013-02-03 14:40:00,18.5,9.7,30.08,SW,216,3.5,3.5,68,0.00,CLR,,0.00,420.0,WeatherDisplay:10.37,2013-02-03 20:40:00,
2013-02-03 14:45:00,18.9,10.1,30.08,SSW,212,3.5,3.5,68,0.00,CLR,,0.00,411.0,WeatherDisplay:10.37,2013-02-03 20:45:00,
2013-02-03 14:50:00,18.9,10.1,30.08,SSW,210,3.5,3.5,68,0.00,CLR,,0.00,413.0,WeatherDisplay:10.37,2013-02-03 20:50:00,
2013-02-03 14:55:00,19.0,10.2,30.08,SSW,210,6.9,6.9,68,0.00,CLR,,0.00,369.0,WeatherDisplay:10.37,2013-02-03 20:55:00,
2013-02-03 15:00:00,18.8,10.0,30.08,SW,216,3.5,3.5,68,0.00,CLR,,0.00,352.0,WeatherDisplay:10.37,2013-02-03 21:00:00,
2013-02-03 15:05:00,18.7,9.9,30.08,SSW,200,12.7,12.7,68,0.00,CLR,,0.00,267.0,WeatherDisplay:10.37,2013-02-03 21:05:00,
2013-02-03 15:10:00,18.3,9.5,30.08,West,259,10.0,10.0,68,0.00,CLR,,0.00,153.0,WeatherDisplay:10.37,2013-02-03 21:10:00,
2013-02-03 15:15:00,18.3,9.8,30.07,South,187,3.0,3.0,69,0.00,FEW,,0.00,183.0,WeatherDisplay:10.37,2013-02-03 21:15:00,
2013-02-03 15:20:00,18.3,9.8,30.08,SSW,193,1.1,1.1,69,0.00,FEW,,0.00,169.0,WeatherDisplay:10.37,2013-02-03 21:20:00,
2013-02-03 15:25:00,18.4,10.2,30.08,SSW,209,2.3,2.3,70,0.00,FEW,,0.00,167.0,WeatherDisplay:10.37,2013-02-03 21:25:00,
2013-02-03 15:30:00,18.4,9.9,30.08,SW,219,9.2,9.2,69,0.00,SCT,,0.00,128.0,WeatherDisplay:10.37,2013-02-03 21:30:00,
2013-02-03 15:35:00,18.3,9.8,30.08,SSW,213,3.5,3.5,69,0.00,SCT,,0.00,183.0,WeatherDisplay:10.37,2013-02-03 21:35:00,
2013-02-03 15:40:00,18.4,9.9,30.08,South,176,6.9,6.9,69,0.00,SCT,,0.00,104.0,WeatherDisplay:10.37,2013-02-03 21:40:00,
2013-02-03 15:45:00,18.3,9.8,30.08,SSW,211,3.5,3.5,69,0.00,FEW,,0.00,105.0,WeatherDisplay:10.37,2013-02-03 21:45:00,
2013-02-03 15:50:00,18.3,9.8,30.08,SSW,211,1.1,0.0,69,0.00,FEW,,0.00,156.0,WeatherDisplay:10.37,2013-02-03 21:50:00,
2013-02-03 15:55:00,18.3,10.1,30.08,SSW,206,1.1,0.0,70,0.00,CLR,,0.00,135.0,WeatherDisplay:10.37,2013-02-03 21:55:00,
2013-02-03 16:00:00,18.2,9.7,30.08,SSW,198,2.0,0.0,69,0.00,CLR,,0.00,120.0,WeatherDisplay:10.37,2013-02-03 22:00:00,
2013-02-03 16:05:00,18.0,9.9,30.08,SSW,200,3.5,0.0,70,0.00,SCT,,0.00,62.0,WeatherDisplay:10.37,2013-02-03 22:05:00,
2013-02-03 16:10:00,17.9,9.8,30.08,SSW,192,5.8,5.8,70,0.00,SCT,,0.00,67.0,WeatherDisplay:10.37,2013-02-03 22:10:00,
2013-02-03 16:15:00,17.8,9.7,30.08,SW,225,1.1,0.0,70,0.00,SCT,,0.00,53.0,WeatherDisplay:10.37,2013-02-03 22:15:00,
2013-02-03 16:20:00,17.5,9.4,30.07,NNW,335,0.0,0.0,70,0.00,BKN,,0.00,33.0,WeatherDisplay:10.37,2013-02-03 22:20:00,
2013-02-03 16:25:00,17.2,9.1,30.07,SSW,210,0.0,0.3,70,0.00,BKN,,0.00,23.0,WeatherDisplay:10.37,2013-02-03 22:25:00,
2013-02-03 16:30:00,17.0,9.2,30.08,SSW,211,0.0,0.0,71,0.00,BKN,,0.00,25.0,WeatherDisplay:10.37,2013-02-03 22:30:00,
2013-02-03 16:35:00,16.8,9.0,30.08,SSW,198,2.3,2.3,71,0.00,BKN,,0.00,26.0,WeatherDisplay:10.37,2013-02-03 22:35:00,
2013-02-03 16:40:00,16.5,8.7,30.07,SSW,198,1.1,1.1,71,0.00,BKN,,0.00,18.0,WeatherDisplay:10.37,2013-02-03 22:40:00,
2013-02-03 16:45:00,16.2,8.8,30.08,South,183,3.5,3.5,72,0.00,BKN,,0.00,14.0,WeatherDisplay:10.37,2013-02-03 22:45:00,
2013-02-03 16:50:00,16.0,8.6,30.08,South,183,0.0,0.0,72,0.00,BKN,,0.00,12.0,WeatherDisplay:10.37,2013-02-03 22:50:00,
2013-02-03 16:55:00,15.8,8.4,30.08,South,183,2.3,2.3,72,0.00,BKN,,0.00,9.0,WeatherDisplay:10.37,2013-02-03 22:55:00,
2013-02-03 17:00:00,15.5,8.4,30.08,SW,229,2.3,0.0,73,0.00,BKN,,0.00,7.0,WeatherDisplay:10.37,2013-02-03 23:00:00,
2013-02-03 17:05:00,15.3,8.2,30.08,SW,224,2.3,2.3,73,0.00,SCT,,0.00,5.0,WeatherDisplay:10.37,2013-02-03 23:05:00,
2013-02-03 17:10:00,15.0,7.9,30.08,SW,224,0.0,0.0,73,0.00,OVC,,0.00,0.0,WeatherDisplay:10.37,2013-02-03 23:10:00,
2013-02-03 17:15:00,14.7,7.6,30.08,SW,224,0.0,0.0,73,0.00,OVC,,0.00,0.0,WeatherDisplay:10.37,2013-02-03 23:15:00,
2013-02-03 17:20:00,14.4,7.3,30.08,SW,224,1.1,0.0,73,0.00,OVC,,0.00,0.0,WeatherDisplay:10.37,2013-02-03 23:20:00,
2013-02-03 17:25:00,14.0,7.2,30.08,SW,224,0.0,0.0,74,0.00,OVC,,0.00,0.0,WeatherDisplay:10.37,2013-02-03 23:25:00,
2013-02-03 17:30:00,13.8,7.0,30.08,SW,224,0.0,0.1,74,0.00,OVC,,0.00,0.0,WeatherDisplay:10.37,2013-02-03 23:30:00,
2013-02-03 17:35:00,13.6,7.1,30.09,SW,224,0.0,0.0,75,0.00,OVC,,0.00,0.0,WeatherDisplay:10.37,2013-02-03 23:35:00,
2013-02-03 17:40:00,13.5,7.3,30.09,SW,224,0.0,0.0,76,0.00,CLR,,0.00,0.0,WeatherDisplay:10.37,2013-02-03 23:40:00,
2013-02-03 17:45:00,13.3,7.1,30.09,SW,224,0.0,0.0,76,0.00,CLR,,0.00,0.0,WeatherDisplay:10.37,2013-02-03 23:45:00,
2013-02-03 17:50:00,13.0,6.9,30.09,SW,224,0.0,0.0,76,0.00,CLR,,0.00,0.0,WeatherDisplay:10.37,2013-02-03 23:50:00,
2013-02-03 17:55:00,12.7,6.6,30.09,SW,224,0.0,0.0,76,0.00,CLR,,0.00,0.0,WeatherDisplay:10.37,2013-02-03 23:55:00,
2013-02-03 18:00:00,12.5,6.7,30.09,SW,224,2.3,2.3,77,0.00,CLR,,0.00,0.0,WeatherDisplay:10.37,2013-02-04 00:00:00,
2013-02-03 18:05:00,12.3,6.5,30.10,SW,224,0.0,0.0,77,0.00,CLR,,0.00,0.0,WeatherDisplay:10.37,2013-02-04 00:05:00,
2013-02-03 18:10:00,12.0,6.2,30.10,SW,224,0.0,0.0,77,0.00,CLR,,0.00,0.0,WeatherDisplay:10.37,2013-02-04 00:10:00,
2013-02-03 18:15:00,11.9,6.4,30.10,SW,224,0.0,0.0,78,0.00,CLR,,0.00,0.0,WeatherDisplay:10.37,2013-02-04 00:15:00,
2013-02-03 18:20:00,11.7,6.2,30.10,SW,224,0.0,0.0,78,0.00,CLR,,0.00,0.0,WeatherDisplay:10.37,2013-02-04 00:20:00,
2013-02-03 18:25:00,11.5,6.2,30.10,SW,224,0.0,0.0,79,0.00,CLR,,0.00,0.0,WeatherDisplay:10.37,2013-02-04 00:25:00,
2013-02-03 18:30:00,11.3,6.1,30.10,SW,224,0.0,0.0,79,0.00,CLR,,0.00,0.0,WeatherDisplay:10.37,2013-02-04 00:30:00,
2013-02-03 18:35:00,11.1,5.9,30.11,SW,224,0.0,0.0,79,0.00,CLR,,0.00,0.0,WeatherDisplay:10.37,2013-02-04 00:35:00,
2013-02-03 18:40:00,10.9,5.7,30.11,SW,224,0.0,0.0,79,0.00,CLR,,0.00,0.0,WeatherDisplay:10.37,2013-02-04 00:40:00,
2013-02-03 18:45:00,10.8,5.8,30.10,SW,224,0.0,0.0,80,0.00,CLR,,0.00,0.0,WeatherDisplay:10.37,2013-02-04 00:45:00,
2013-02-03 18:50:00,10.9,5.9,30.10,SW,224,0.0,0.0,80,0.00,CLR,,0.00,0.0,WeatherDisplay:10.37,2013-02-04 00:50:00,
2013-02-03 18:55:00,11.0,6.3,30.10,SW,224,0.0,0.0,81,0.00,CLR,,0.00,0.0,WeatherDisplay:10.37,2013-02-04 00:55:00,
2013-02-03 19:00:00,11.3,6.6,30.10,SW,224,1.1,1.1,81,0.00,CLR,,0.00,0.0,WeatherDisplay:10.37,2013-02-04 01:00:00,
2013-02-03 19:05:00,11.6,7.2,30.10,SW,224,0.0,0.0,82,0.00,CLR,,0.00,0.0,WeatherDisplay:10.37,2013-02-04 01:05:00,
2013-02-03 19:10:00,12.1,7.7,30.10,SW,224,2.3,2.3,82,0.00,CLR,,0.00,0.0,WeatherDisplay:10.37,2013-02-04 01:10:00,
2013-02-03 19:15:00,12.7,8.5,30.10,SW,224,1.1,1.1,83,0.00,CLR,,0.00,0.0,WeatherDisplay:10.37,2013-02-04 01:15:00,
2013-02-03 19:20:00,13.2,8.7,30.11,SW,224,1.1,1.1,82,0.00,CLR,,0.00,0.0,WeatherDisplay:10.37,2013-02-04 01:20:00,
2013-02-03 19:25:00,13.6,9.1,30.11,SW,228,1.0,1.0,82,0.00,CLR,,0.00,0.0,WeatherDisplay:10.37,2013-02-04 01:25:00,
2013-02-03 19:30:00,13.8,9.3,30.11,SSW,204,1.1,0.0,82,0.00,CLR,,0.00,0.0,WeatherDisplay:10.37,2013-02-04 01:30:00,
2013-02-03 19:35:00,14.0,9.5,30.11,South,176,3.5,3.5,82,0.00,CLR,,0.00,0.0,WeatherDisplay:10.37,2013-02-04 01:35:00,
2013-02-03 19:40:00,14.2,9.7,30.10,SSW,192,0.0,0.0,82,0.00,CLR,,0.00,0.0,WeatherDisplay:10.37,2013-02-04 01:40:00,
2013-02-03 19:45:00,14.3,9.5,30.11,SSW,192,1.1,1.1,81,0.00,CLR,,0.00,0.0,WeatherDisplay:10.37,2013-02-04 01:45:00,
2013-02-03 19:50:00,14.4,9.6,30.11,SSW,201,0.0,0.0,81,0.00,CLR,,0.00,0.0,WeatherDisplay:10.37,2013-02-04 01:50:00,
2013-02-03 19:55:00,14.5,9.7,30.11,SW,233,1.1,0.0,81,0.00,CLR,,0.00,0.0,WeatherDisplay:10.37,2013-02-04 01:55:00,
2013-02-03 20:00:00,14.6,9.8,30.10,SW,232,0.0,0.0,81,0.00,CLR,,0.00,0.0,WeatherDisplay:10.37,2013-02-04 02:00:00,
2013-02-03 20:05:00,14.6,9.8,30.11,SW,233,0.0,0.0,81,0.00,CLR,,0.00,0.0,WeatherDisplay:10.37,2013-02-04 02:05:00,
2013-02-03 20:10:00,14.6,9.8,30.11,SW,219,3.5,3.5,81,0.00,CLR,,0.00,0.0,WeatherDisplay:10.37,2013-02-04 02:10:00,
2013-02-03 20:15:00,14.6,9.8,30.11,SW,219,0.0,0.0,81,0.00,CLR,,0.00,0.0,WeatherDisplay:10.37,2013-02-04 02:15:00,
2013-02-03 20:20:00,14.6,9.8,30.11,SW,219,0.0,0.0,81,0.00,CLR,,0.00,0.0,WeatherDisplay:10.37,2013-02-04 02:20:00,
2013-02-03 20:25:00,14.6,9.8,30.11,SW,219,0.0,0.0,81,0.00,CLR,,0.00,0.0,WeatherDisplay:10.37,2013-02-04 02:25:00,
2013-02-03 20:30:00,14.6,9.6,30.11,SW,219,1.1,0.0,80,0.00,CLR,,0.00,0.0,WeatherDisplay:10.37,2013-02-04 02:30:00,
2013-02-03 20:35:00,14.6,9.6,30.11,SW,219,0.0,0.0,80,0.00,CLR,,0.00,0.0,WeatherDisplay:10.37,2013-02-04 02:35:00,
2013-02-03 20:40:00,14.6,9.6,30.11,SW,219,0.0,0.0,80,0.00,CLR,,0.00,0.0,WeatherDisplay:10.37,2013-02-04 02:40:00,
2013-02-03 20:45:00,14.6,9.6,30.11,SW,219,0.0,0.0,80,0.00,CLR,,0.00,0.0,WeatherDisplay:10.37,2013-02-04 02:45:00,
2013-02-03 20:50:00,14.7,9.9,30.11,SW,219,0.0,0.0,81,0.00,CLR,,0.00,0.0,WeatherDisplay:10.37,2013-02-04 02:50:00,
2013-02-03 20:55:00,14.7,9.6,30.11,SW,219,1.1,0.0,80,0.00,CLR,,0.00,0.0,WeatherDisplay:10.37,2013-02-04 02:55:00,
2013-02-03 21:00:00,14.7,9.6,30.11,SW,219,0.0,0.0,80,0.00,CLR,,0.00,0.0,WeatherDisplay:10.37,2013-02-04 03:00:00,
2013-02-03 21:05:00,14.7,9.6,30.11,SW,219,0.0,0.0,80,0.00,CLR,,0.00,0.0,WeatherDisplay:10.37,2013-02-04 03:05:00,
2013-02-03 21:10:00,14.8,10.0,30.12,SW,219,0.0,0.0,81,0.00,CLR,,0.00,0.0,WeatherDisplay:10.37,2013-02-04 03:10:00,
2013-02-03 21:15:00,14.8,10.0,30.12,SW,219,0.0,0.0,81,0.00,CLR,,0.00,0.0,WeatherDisplay:10.37,2013-02-04 03:15:00,
2013-02-03 21:20:00,14.8,10.0,30.12,SW,219,0.0,0.0,81,0.00,CLR,,0.00,0.0,WeatherDisplay:10.37,2013-02-04 03:20:00,
2013-02-03 21:25:00,14.9,10.1,30.12,SW,219,0.0,0.0,81,0.00,CLR,,0.00,0.0,WeatherDisplay:10.37,2013-02-04 03:25:00,
2013-02-03 21:30:00,14.9,10.1,30.12,SW,219,0.0,0.0,81,0.00,CLR,,0.00,0.0,WeatherDisplay:10.37,2013-02-04 03:30:00,
2013-02-03 21:35:00,14.9,10.1,30.12,SW,219,0.0,0.0,81,0.00,CLR,,0.00,0.0,WeatherDisplay:10.37,2013-02-04 03:35:00,
2013-02-03 21:40:00,14.9,10.1,30.12,SW,219,0.0,0.0,81,0.00,CLR,,0.00,0.0,WeatherDisplay:10.37,2013-02-04 03:40:00,
2013-02-03 21:45:00,15.0,10.2,30.12,SW,219,0.0,0.0,81,0.00,CLR,,0.00,0.0,WeatherDisplay:10.37,2013-02-04 03:45:00,
2013-02-03 21:50:00,15.0,10.2,30.12,SW,219,0.0,0.0,81,0.00,CLR,,0.00,0.0,WeatherDisplay:10.37,2013-02-04 03:50:00,
2013-02-03 21:55:00,15.0,10.2,30.12,SW,219,0.0,0.0,81,0.00,CLR,,0.00,0.0,WeatherDisplay:10.37,2013-02-04 03:55:00,
2013-02-03 22:00:00,15.1,10.6,30.12,SW,219,0.0,0.0,82,0.00,CLR,,0.00,0.0,WeatherDisplay:10.37,2013-02-04 04:00:00,
2013-02-03 22:05:00,15.2,10.4,30.12,SW,219,0.0,0.0,81,0.00,CLR,,0.00,0.0,WeatherDisplay:10.37,2013-02-04 04:05:00,
2013-02-03 22:10:00,15.2,10.7,30.12,SSW,204,2.3,2.3,82,0.00,CLR,,0.00,0.0,WeatherDisplay:10.37,2013-02-04 04:10:00,
2013-02-03 22:15:00,15.3,10.8,30.12,South,182,4.0,4.0,82,0.00,CLR,,0.00,0.0,WeatherDisplay:10.37,2013-02-04 04:15:00,
2013-02-03 22:20:00,15.4,10.9,30.12,SSW,204,2.3,0.0,82,0.00,CLR,,0.00,0.0,WeatherDisplay:10.37,2013-02-04 04:20:00,
2013-02-03 22:25:00,15.4,10.9,30.12,SW,220,3.5,3.5,82,0.00,CLR,,0.00,0.0,WeatherDisplay:10.37,2013-02-04 04:25:00,
2013-02-03 22:30:00,15.4,11.2,30.12,SW,216,2.3,2.3,83,0.00,CLR,,0.00,0.0,WeatherDisplay:10.37,2013-02-04 04:30:00,
2013-02-03 22:35:00,15.4,11.2,30.12,South,177,3.5,3.5,83,0.00,CLR,,0.00,0.0,WeatherDisplay:10.37,2013-02-04 04:35:00,
2013-02-03 22:40:00,15.3,11.1,30.12,SSW,196,0.0,0.0,83,0.00,CLR,,0.00,0.0,WeatherDisplay:10.37,2013-02-04 04:40:00,
2013-02-03 22:45:00,15.3,11.3,30.12,SW,221,0.0,0.0,84,0.00,CLR,,0.00,0.0,WeatherDisplay:10.37,2013-02-04 04:45:00,
2013-02-03 22:50:00,15.3,11.3,30.12,SSW,204,2.3,2.3,84,0.00,CLR,,0.00,0.0,WeatherDisplay:10.37,2013-02-04 04:50:00,
2013-02-03 22:55:00,15.3,11.6,30.12,SW,214,2.3,2.3,85,0.00,CLR,,0.00,0.0,WeatherDisplay:10.37,2013-02-04 04:55:00,
2013-02-03 23:00:00,15.3,11.6,30.12,WSW,255,3.5,0.0,85,0.00,CLR,,0.00,0.0,WeatherDisplay:10.37,2013-02-04 05:00:00,
2013-02-03 23:02:00,15.3,11.6,30.12,SW,217,2.3,2.3,85,0.00,CLR,,0.00,0.0,WeatherDisplay:10.37,2013-02-04 05:02:00,
2013-02-03 23:03:00,15.3,11.6,30.12,SW,217,2.3,2.3,85,0.00,CLR,,0.00,0.0,WeatherDisplay:10.37,2013-02-04 05:03:00,
2013-02-03 23:08:00,15.3,11.9,30.11,SSW,213,3.5,0.0,86,0.00,CLR,,0.00,0.0,WeatherDisplay:10.37,2013-02-04 05:08:00,
2013-02-03 23:13:00,15.3,11.9,30.11,SW,219,0.0,0.2,86,0.00,CLR,,0.00,0.0,WeatherDisplay:10.37,2013-02-04 05:13:00,
2013-02-03 23:18:00,15.3,11.9,30.11,SSW,195,0.0,0.0,86,0.00,CLR,,0.00,0.0,WeatherDisplay:10.37,2013-02-04 05:18:00,
2013-02-03 23:23:00,15.3,11.9,30.11,SW,227,0.0,0.0,86,0.00,CLR,,0.00,0.0,WeatherDisplay:10.37,2013-02-04 05:23:00,
2013-02-03 23:28:00,15.3,11.9,30.11,SW,227,0.0,0.0,86,0.00,CLR,,0.00,0.0,WeatherDisplay:10.37,2013-02-04 05:28:00,
2013-02-03 23:33:00,15.2,11.8,30.11,SW,227,0.0,0.0,86,0.00,CLR,,0.00,0.0,WeatherDisplay:10.37,2013-02-04 05:33:00,
2013-02-03 23:38:00,15.2,11.8,30.11,SW,227,0.0,0.0,86,0.00,CLR,,0.00,0.0,WeatherDisplay:10.37,2013-02-04 05:38:00,
2013-02-03 23:43:00,15.1,11.9,30.10,SW,227,0.0,0.0,87,0.00,CLR,,0.00,0.0,WeatherDisplay:10.37,2013-02-04 05:43:00,
2013-02-03 23:48:00,15.1,11.9,30.10,SW,227,0.0,0.0,87,0.00,CLR,,0.00,0.0,WeatherDisplay:10.37,2013-02-04 05:48:00,
2013-02-03 23:53:00,15.1,11.9,30.10,SW,227,0.0,0.0,87,0.00,CLR,,0.00,0.0,WeatherDisplay:10.37,2013-02-04 05:53:00,
2013-02-03 23:58:00,15.1,11.9,30.10,SW,227,0.0,0.0,87,0.00,CLR,,0.00,0.0,WeatherDisplay:10.37,2013-02-04 05:58:00,